Location: Recife
(8.0585°S, 34.8848°W)
Time: 20:10:45
(UTC-03:00)

Explorer 11/Cluster Stage 4 - Pass Details

Date: 17 April 2026
Orbit: 463 x 1174 km, 28.8° (Epoch: 16 May)

Event Time Altitude Azimuth Distance (km) Brightness Sun altitude
Rises 04:18:07 0° 231° (SW) 2,605 - -16.4°
Reaches altitude 10° 04:20:16 10° 224° (SW) 1,784 - -15.8°
Exits shadow 04:21:25 18° 216° (SW) 1,374 7.4 -15.6°
Maximum altitude 04:24:11 44° 151° (SSE) 826 6.8 -14.9°
Drops below altitude 10° 04:28:51 10° 78° (ENE) 2,129 10.3 -13.7°
Sets 04:31:37 0° 72° (ENE) 3,179 11.6 -13.1°
